Theta_e
327 326 325 325 325 323 323 325 325 326 326 321 318 321 326 329 329 328 328 329 329 329 326 324 324 327 329 329 329 329 328 328 326 326 323 318 315 313 312 311 310 309 310 311 312 313 314 315 316 317 318 318 319 319 320 320 320 320 320 320 320 320 320 319 318 317 316 315 313 312 312 312 313 313 314 316 317 318 318 319 319 319 318 316 315
328 327 326 326 326 323 320 323 326 326 327 325 320 319 323 328 328 327 328 329 329 329 327 326 327 328 330 329 330 329 329 328 327 326 323 318 315 313 312 312 311 312 313 314 315 317 318 318 320 320 321 321 320 320 320 320 320 320 321 321 321 322 321 321 320 318 316 315 314 314 314 314 314 314 315 315 316 316 317 318 319 320 320 320 319
328 327 326 328 326 322 320 321 324 326 327 326 322 320 322 325 326 327 329 329 328 328 328 328 329 330 330 330 330 330 330 328 327 326 322 318 315 313 313 314 314 315 316 317 319 320 321 321 322 322 322 322 321 321 321 321 321 321 321 321 322 322 322 322 321 319 318 317 317 317 318 319 319 319 318 317 316 316 316 316 318 319 320 321 321
330 328 327 330 326 321 320 322 323 325 326 326 325 324 324 325 327 328 329 327 327 327 329 329 330 331 331 331 330 330 330 328 328 326 322 318 315 313 313 315 316 317 319 321 323 324 325 324 324 324 323 323 323 323 323 323 323 322 322 322 322 322 322 322 322 321 320 319 320 321 322 322 322 322 322 321 320 318 317 316 316 317 318 319 320
330 329 330 331 325 320 320 321 322 324 326 326 326 325 326 327 328 327 326 325 327 328 329 329 330 330 330 330 330 330 329 328 328 325 321 316 313 312 312 313 315 318 320 322 324 325 326 326 327 327 326 326 327 327 326 326 325 324 323 323 323 323 322 322 322 322 322 322 322 323 323 323 324 323 323 323 323 322 320 318 317 317 318 319 320
331 331 332 330 324 321 320 319 319 323 326 327 326 326 326 326 326 326 325 326 328 329 329 330 330 330 330 330 330 330 329 329 328 325 319 313 310 310 310 311 315 319 321 323 324 325 326 327 327 327 327 327 328 327 327 327 327 326 325 324 324 324 323 323 323 323 323 323 323 323 323 324 324 323 323 323 323 323 322 321 320 318 318 319 320
331 331 331 328 324 323 321 318 317 320 325 327 326 326 327 327 327 327 327 327 329 329 329 330 330 330 330 330 330 329 329 329 327 323 318 312 309 309 311 314 317 321 323 323 324 325 326 326 326 326 327 327 327 327 327 327 327 327 326 325 324 324 324 324 324 323 323 323 323 323 323 324 325 324 324 323 322 321 322 322 321 320 320 321 321
331 332 330 328 327 326 323 321 318 318 324 327 327 326 327 328 328 327 328 329 329 329 329 330 330 330 330 329 329 329 329 329 326 323 319 315 312 312 315 319 321 322 323 323 324 324 324 324 324 325 325 326 326 326 326 326 326 327 326 325 324 323 324 324 324 324 324 324 323 322 323 325 325 324 324 323 321 320 320 321 321 321 322 322 322
330 331 331 329 329 328 327 325 322 321 322 325 326 327 327 328 328 328 329 330 330 330 330 330 330 330 330 329 329 329 329 328 325 324 322 319 317 317 319 321 323 323 324 324 323 322 322 322 321 322 323 324 325 325 325 325 326 326 325 323 322 322 323 324 324 324 325 326 325 323 324 325 325 324 323 322 321 319 319 321 321 322 322 322 321
328 331 331 330 330 329 329 328 327 327 325 325 325 326 327 328 329 329 330 331 331 330 330 330 330 330 330 329 329 328 328 327 325 324 322 321 320 320 321 323 323 324 323 323 322 322 321 321 321 320 322 324 324 325 325 325 325 324 323 321 321 321 322 323 324 323 325 327 325 324 323 324 323 320 317 316 317 318 319 321 322 322 322 320 319
328 331 331 331 331 330 330 329 329 330 329 327 327 327 328 329 330 330 331 331 331 330 330 330 330 330 329 329 329 328 327 327 326 325 323 322 320 321 323 323 323 323 322 322 322 321 320 320 320 321 322 323 323 324 324 324 323 322 321 322 322 321 321 323 323 323 324 325 324 323 323 322 318 313 308 307 312 317 319 321 322 322 320 316 314
329 331 331 331 331 331 331 330 330 330 329 329 328 329 329 330 331 331 331 331 331 330 330 330 330 329 329 329 329 328 327 327 327 325 324 323 321 322 323 323 323 323 322 322 321 320 319 319 319 320 320 321 322 323 323 323 322 321 322 323 323 322 321 323 323 323 323 324 323 322 320 316 310 307 305 306 312 315 315 318 319 316 313 310 308
330 331 332 331 331 331 331 331 331 330 330 330 328 328 329 330 331 331 331 330 330 330 330 330 329 329 329 329 329 328 328 328 327 326 325 324 323 323 323 323 323 323 322 322 321 319 317 317 317 317 318 320 322 323 322 321 318 318 320 321 322 322 322 323 323 323 322 322 321 317 313 309 306 306 305 306 309 309 309 311 310 308 307 305 305
330 330 331 331 331 331 331 330 331 330 330 330 328 327 328 330 331 331 331 330 330 330 329 329 329 329 329 329 329 328 327 328 327 327 326 325 324 324 324 323 323 323 323 322 321 319 317 317 315 314 315 318 320 321 320 317 312 311 314 319 321 321 322 322 321 320 320 319 316 311 308 306 306 305 305 305 305 305 305 305 304 304 304 303 303
331 330 331 331 331 331 331 330 330 329 329 329 327 326 327 329 330 330 331 330 330 329 329 329 329 329 328 328 328 328 328 328 327 327 326 326 326 325 324 323 323 322 322 323 322 321 320 319 315 313 314 316 317 318 316 313 308 305 309 317 321 321 321 320 318 317 315 313 309 306 306 305 305 304 303 303 302 302 303 302 302 302 301 301 301
331 331 330 330 331 331 331 331 330 329 329 329 328 326 326 328 330 330 331 330 329 329 330 329 328 328 328 328 327 327 327 327 327 327 326 326 326 325 324 323 323 323 323 323 324 323 323 320 316 314 315 315 316 315 313 311 307 304 307 312 316 317 316 314 313 312 310 307 306 305 306 305 304 303 302 302 301 301 301 301 301 301 301 301 301
331 332 330 330 331 331 332 332 331 329 329 329 328 326 325 328 329 330 331 330 328 329 329 329 328 328 328 327 326 326 326 326 326 326 325 326 326 324 324 323 324 325 324 324 324 323 322 319 317 317 317 316 316 314 313 310 306 304 305 307 308 309 308 307 307 307 306 305 306 306 305 303 302 302 301 301 301 301 301 301 301 301 300 300 300
331 332 331 330 331 331 332 332 330 329 329 330 329 326 325 328 329 330 330 330 329 329 329 328 328 329 328 327 326 325 326 325 325 326 325 325 325 324 324 323 324 325 324 324 324 323 322 320 318 318 319 319 318 315 312 309 305 305 305 305 306 306 305 306 305 305 306 306 306 304 303 302 301 301 301 301 301 301 301 301 301 300 300 300 300
331 332 331 330 331 331 332 332 331 329 328 329 329 328 326 328 329 329 330 330 329 329 328 328 328 329 329 328 327 326 325 326 326 325 325 325 325 324 324 324 325 325 325 324 324 322 322 321 318 317 319 320 318 314 309 306 305 305 306 306 306 306 306 306 306 306 306 305 304 302 302 302 301 301 301 301 301 301 301 301 300 301 300 301 301
331 332 330 330 331 331 331 331 331 329 326 326 328 329 328 328 329 329 329 329 329 329 328 328 327 328 328 328 327 326 326 326 326 325 325 326 325 325 324 324 325 325 324 323 322 321 320 320 319 316 317 317 316 314 307 304 306 306 306 306 306 306 306 306 306 306 305 303 302 302 302 302 301 301 301 301 301 301 301 301 301 301 301 301 301
332 331 331 330 330 331 330 331 331 329 327 327 327 329 328 327 328 329 329 329 329 329 329 328 328 327 327 328 327 327 326 326 326 325 324 325 325 325 325 325 325 325 324 322 321 320 319 318 317 316 317 315 314 312 306 304 307 307 306 306 306 307 306 306 306 304 303 302 301 302 302 302 301 301 301 301 301 301 301 301 301 301 301 302 302
331 332 331 330 330 331 330 330 331 330 329 330 329 329 329 327 327 328 328 329 328 328 329 328 328 328 327 327 327 327 326 326 325 325 325 324 324 324 324 325 325 324 323 321 320 319 318 317 316 316 317 314 310 308 304 305 307 307 306 306 306 307 306 305 304 302 302 302 302 302 302 302 302 301 302 302 301 302 302 302 302 302 302 302 302
331 331 331 330 330 329 328 328 330 330 330 330 329 329 329 328 327 328 328 328 328 328 329 329 329 329 328 327 326 326 326 325 325 324 325 325 324 324 324 325 325 324 321 320 320 319 318 317 317 315 314 311 307 304 304 306 307 307 306 307 307 306 305 303 302 302 302 302 302 302 302 302 302 302 302 302 302 302 302 302 302 302 302 302 302
331 331 330 330 330 328 326 327 329 330 330 329 328 329 329 328 327 328 328 328 328 328 329 329 329 329 328 328 326 325 326 326 326 325 324 324 324 324 324 325 325 324 322 321 321 319 318 318 316 314 311 309 306 304 305 307 307 307 306 307 306 305 304 302 302 302 302 302 303 303 302 302 302 302 302 302 302 302 302 302 302 302 302 302 302
331 331 330 330 330 327 325 327 329 330 329 328 328 329 329 328 328 328 328 328 328 328 329 329 329 329 328 328 327 326 326 326 327 326 325 325 325 324 324 324 324 324 322 322 321 320 319 318 316 314 311 308 306 305 306 307 307 307 306 306 306 304 303 302 302 302 302 303 303 303 303 303 303 303 303 303 302 302 302 302 302 302 302 303 303
331 331 330 329 328 325 324 327 329 329 328 327 329 329 329 328 328 329 328 328 328 328 328 328 329 329 328 328 327 326 326 326 327 327 326 325 325 325 324 324 324 323 323 323 322 320 319 318 316 314 312 309 306 305 306 308 308 307 307 307 306 304 303 302 302 302 303 304 304 304 303 303 303 303 303 303 303 303 303 303 304 305 306 307 307
330 330 330 328 326 325 326 328 328 327 327 327 329 330 329 328 328 329 329 328 328 328 328 328 328 329 328 328 328 327 327 327 326 326 326 326 325 325 325 324 324 323 323 324 323 321 319 318 316 314 312 310 307 306 307 308 308 307 307 307 306 305 303 302 302 303 304 304 304 304 304 303 303 303 303 304 304 305 306 307 308 309 310 311 311
330 330 329 327 325 326 328 329 329 328 327 328 329 330 329 328 328 328 328 328 328 328 328 328 328 329 328 328 328 327 327 328 327 326 326 326 325 326 325 324 324 323 323 324 323 321 319 318 317 315 312 309 308 307 307 308 308 307 307 307 307 305 303 303 303 303 304 305 305 305 304 304 304 304 305 305 307 308 310 311 312 312 312 312 312
330 330 329 326 325 326 327 328 328 328 328 329 329 329 329 329 328 328 328 328 328 328 328 327 327 328 328 328 328 328 328 328 327 326 325 326 326 326 325 325 324 323 323 323 322 321 320 318 317 315 311 308 307 307 307 308 308 307 307 308 307 305 304 303 303 303 305 306 307 306 305 304 305 305 307 308 310 311 312 312 312 313 312 312 312
330 330 329 328 327 326 326 327 327 328 329 330 329 329 329 329 328 328 327 327 327 327 328 327 327 327 327 327 327 327 328 328 327 326 325 326 326 326 326 326 325 324 323 323 322 320 319 319 317 314 311 308 307 307 308 309 309 308 307 308 307 306 304 303 303 303 305 306 307 307 306 306 306 307 308 311 312 312 312 312 312 312 312 313 313
330 329 329 328 327 325 325 327 328 329 330 330 329 329 329 329 328 328 327 327 327 328 328 328 327 327 327 326 327 327 327 328 327 326 326 326 327 326 326 326 325 324 323 323 322 320 317 317 317 313 310 308 308 307 308 309 309 308 307 308 308 307 306 305 304 303 304 306 307 308 308 307 307 308 310 312 312 312 312 312 312 312 312 312 313
329 328 327 326 325 325 325 327 329 330 330 330 329 328 329 329 328 328 327 327 328 328 329 328 327 327 327 327 327 327 327 327 327 326 325 326 327 327 326 326 325 325 324 323 323 321 318 315 314 312 309 309 308 307 307 308 308 308 307 307 307 307 307 306 306 305 304 305 306 308 309 308 307 309 311 312 312 312 312 312 312 312 312 312 312
329 328 326 325 324 324 326 328 330 329 329 329 329 329 329 328 328 328 328 328 328 329 329 328 327 327 327 327 328 327 326 326 326 326 325 326 326 327 326 326 326 325 324 324 323 323 321 316 312 310 309 309 308 307 307 308 308 307 307 307 307 307 307 307 307 306 305 305 306 307 309 309 308 309 311 312 312 312 312 312 312 312 312 312 312
328 327 326 325 322 321 324 327 328 328 328 328 329 328 328 328 328 328 328 328 329 329 329 328 328 328 327 327 328 328 327 326 326 326 326 325 326 326 326 325 325 325 325 325 324 323 322 319 314 311 310 309 309 308 307 307 308 308 307 307 307 307 307 308 308 308 307 306 306 307 308 309 309 310 311 312 312 312 312 312 312 312 312 312 312
328 327 327 326 324 322 322 323 324 326 327 328 328 328 327 327 328 328 328 329 329 329 328 328 328 328 327 327 328 328 327 327 327 326 326 326 326 326 326 325 325 325 325 325 324 324 323 321 318 314 311 310 310 309 308 308 308 309 309 308 308 308 308 308 308 308 308 307 307 306 307 308 309 310 311 312 312 312 312 312 312 312 312 312 312
328 327 327 326 326 325 323 322 322 324 327 328 328 328 328 327 328 328 328 328 329 329 328 328 328 328 328 328 328 328 328 327 327 327 326 326 326 326 325 325 325 325 325 325 325 324 323 322 321 317 313 311 311 310 309 309 309 309 310 310 309 309 308 308 309 309 309 308 308 307 307 307 308 310 311 311 312 312 312 312 312 312 312 312 312
328 327 327 325 325 325 324 323 323 324 325 328 328 328 329 328 328 328 327 328 328 328 327 328 328 328 328 328 328 327 327 327 328 327 327 326 326 325 325 325 325 325 325 325 325 324 323 323 322 320 316 313 312 311 310 309 309 309 310 310 310 310 309 309 309 310 310 309 309 309 309 309 309 310 310 310 311 312 312 312 312 312 312 312 312
327 327 327 326 325 325 324 323 323 324 325 326 328 329 328 328 328 328 328 328 329 328 328 328 328 328 328 328 327 327 327 327 327 327 327 327 326 326 325 325 325 325 324 325 325 324 324 323 321 319 318 317 318 317 313 311 310 309 310 310 311 311 311 311 311 311 311 311 311 311 311 311 311 311 311 311 311 311 312 312 312 312 312 313 313
327 327 327 326 325 325 325 323 322 324 324 324 326 328 327 325 325 326 327 328 328 328 328 328 328 327 327 327 327 327 327 326 327 326 326 325 325 325 325 325 324 324 325 325 325 325 324 323 320 319 320 321 322 320 317 313 311 310 310 310 310 311 312 312 312 311 312 312 312 312 312 312 312 312 312 312 312 312 312 312 312 312 312 312 313
327 326 326 325 324 324 326 325 323 323 324 324 325 326 324 324 324 325 326 327 327 327 327 327 327 327 327 327 327 327 327 327 326 326 325 325 324 324 325 324 324 324 325 325 325 325 325 323 321 320 321 322 321 319 316 314 312 311 310 310 311 311 312 313 313 313 313 313 313 313 313 313 313 313 313 313 313 313 313 313 313 313 313 313 313
326 325 325 326 324 323 325 325 324 323 323 324 325 324 323 323 323 324 324 325 326 326 326 326 326 326 326 326 326 327 326 326 326 326 326 325 325 325 324 324 324 325 325 325 325 325 325 324 323 321 322 322 320 317 315 313 312 311 311 311 311 312 312 313 313 313 313 313 313 313 313 313 313 313 313 313 313 313 313 313 313 313 314 313 314
325 323 324 326 325 323 324 323 323 322 322 323 324 323 321 321 321 321 321 322 324 326 326 326 326 326 326 326 326 326 326 326 326 326 326 324 324 324 324 324 324 325 325 325 324 324 324 324 323 322 322 321 318 315 314 314 313 312 311 311 312 312 312 312 313 313 313 313 313 313 313 313 313 313 313 314 314 314 314 314 314 314 314 314 314
325 323 324 325 324 323 323 322 322 323 323 322 322 321 321 321 321 320 320 322 324 325 326 326 326 326 326 326 327 326 326 326 326 326 326 324 323 323 324 324 324 325 325 324 323 322 323 323 323 322 322 319 316 314 314 314 313 312 312 312 312 313 312 313 314 314 313 313 313 313 314 313 313 314 314 315 315 315 315 315 315 315 315 315 315
325 323 323 323 323 322 323 323 324 325 324 322 321 322 322 322 322 322 322 324 325 325 325 325 326 326 326 326 326 325 324 324 324 325 325 325 324 324 324 324 325 324 324 324 323 322 323 323 323 322 321 318 316 314 314 314 313 313 312 312 312 313 313 313 313 313 313 313 313 314 314 314 314 314 314 315 315 316 316 316 316 316 316 316 316
325 324 323 323 324 324 324 324 325 325 324 322 322 323 323 323 323 323 323 324 325 325 325 326 326 326 326 326 325 324 323 323 323 324 325 325 325 324 324 325 325 324 324 323 322 322 322 322 322 322 320 318 315 314 314 313 313 313 312 312 312 312 313 313 313 314 314 314 314 314 315 315 315 316 316 316 316 316 317 317 316 316 316 316 316
325 324 323 324 325 326 325 324 324 324 323 323 323 324 324 324 323 323 324 324 324 325 325 326 326 326 326 325 324 323 322 322 322 323 325 325 324 324 324 324 324 323 322 321 321 321 321 320 319 319 318 317 315 313 313 313 313 313 313 313 313 313 314 315 315 316 316 316 316 316 317 317 317 316 316 316 316 316 316 316 315 315 315 315 315
325 324 323 323 325 327 326 324 324 323 322 323 324 324 324 324 324 324 324 324 325 325 325 326 326 326 325 325 324 323 322 321 320 321 323 323 323 323 323 323 322 321 320 319 319 319 319 318 317 317 316 315 314 314 314 314 314 314 314 315 315 316 316 317 317 316 316 316 316 316 316 316 316 316 316 315 315 315 315 315 315 315 314 314 314
324 324 324 324 325 327 326 324 323 322 321 323 325 324 324 324 323 323 324 325 325 324 324 324 324 324 324 324 323 322 322 321 320 320 320 321 321 321 320 320 320 319 319 319 318 318 317 316 316 316 315 315 315 315 315 316 316 316 316 317 316 316 316 316 316 316 315 315 316 315 315 315 315 315 315 314 314 313 313 312 311 310 309 309 309
324 324 324 324 325 327 325 323 322 321 321 323 325 324 323 323 322 323 324 325 324 322 322 322 322 322 322 322 321 322 322 321 320 319 319 319 319 319 318 319 318 318 318 318 318 318 318 317 316 316 316 316 317 317 316 317 317 316 316 317 316 316 316 316 316 316 316 315 315 315 314 313 312 312 311 310 310 309 309 309 308 308 308 307 307
323 324 325 325 326 326 324 323 323 322 323 324 324 324 323 322 321 322 322 323 323 322 321 321 321 320 321 321 321 321 321 321 320 319 319 319 319 318 318 317 317 317 317 317 317 317 318 317 316 316 316 316 316 316 316 316 316 316 316 316 316 315 315 314 314 314 313 312 311 311 310 309 308 308 308 307 307 307 307 308 308 308 308 308 307
318 320 322 324 326 325 324 323 324 325 325 325 324 324 323 323 322 321 321 322 322 321 321 321 320 320 320 321 322 321 320 320 319 319 319 319 318 318 317 316 316 316 316 317 317 316 317 316 316 316 316 315 316 316 316 316 316 316 315 314 314 313 312 310 309 309 308 307 307 307 306 306 306 305 306 306 306 306 306 306 306 306 305 305 305
Wind_Speed
7 8 9 10 12 12 15 16 18 21 19 18 21 24 24 22 19 17 14 12 9 7 5 3 2 0 2 3 3 5 6 7 8 8 8 6 5 5 6 8 10 11 12 12 12 12 12 12 12 12 12 12 11 11 11 10 10 10 10 9 9 9 9 9 10 10 10 11 11 12 13 14 14 14 15 15 16 16 16 17 17 17 17 17 17
8 9 10 11 11 11 14 17 19 21 21 19 19 22 25 23 20 18 16 14 11 8 6 5 3 2 1 1 2 3 4 6 7 7 6 4 4 4 6 9 10 12 12 13 13 13 13 12 12 12 11 11 10 10 9 9 9 8 8 8 8 8 8 9 9 9 9 10 11 12 13 14 14 14 14 14 15 15 15 15 16 16 17 17 17
10 10 11 11 11 10 13 17 19 21 22 20 19 20 23 23 21 19 17 15 12 10 7 6 5 4 2 1 1 2 3 5 5 6 4 3 3 4 6 9 10 12 13 13 12 12 11 11 11 10 9 9 9 9 9 9 8 8 8 7 7 7 8 8 9 9 9 9 11 12 12 13 13 13 13 13 14 14 14 14 14 15 16 16 17
12 11 12 12 11 10 13 17 19 21 23 22 21 21 22 22 21 19 17 15 13 11 8 7 5 5 3 2 2 2 3 3 4 4 3 2 2 4 6 8 10 11 11 11 10 9 8 8 8 7 7 7 7 8 9 9 9 8 8 7 7 7 8 8 8 8 9 9 10 10 11 11 11 12 12 12 12 13 13 13 13 14 15 15 16
13 12 13 13 12 12 13 17 19 22 23 23 23 22 22 22 21 20 17 16 14 11 9 7 6 5 3 3 3 2 2 1 2 2 2 2 3 4 5 7 8 9 9 9 8 7 6 6 5 5 5 6 6 6 7 8 8 9 9 8 7 7 7 7 7 7 8 8 9 9 10 10 11 11 11 11 10 11 12 12 12 13 13 14 15
14 14 14 14 13 13 13 15 19 22 23 23 23 22 22 22 21 20 18 16 15 12 9 7 6 5 4 4 4 3 2 1 1 2 2 3 4 5 5 7 8 9 9 7 7 7 6 4 4 3 3 4 4 4 5 5 6 7 8 8 7 7 7 6 6 7 7 8 8 8 8 9 11 11 11 11 10 10 10 11 12 12 13 14 14
16 15 15 14 14 14 14 14 17 21 23 23 22 22 22 21 21 20 18 17 15 12 10 7 6 5 5 5 5 4 3 3 3 3 3 5 6 7 7 8 9 9 9 7 7 6 5 4 3 3 2 2 2 3 3 3 4 4 6 7 7 6 6 6 6 6 7 7 8 8 8 9 12 12 12 13 13 12 12 11 12 12 13 13 14
18 17 16 15 14 15 15 15 16 20 22 23 22 22 21 20 19 18 17 16 15 12 10 8 6 6 6 7 6 6 6 5 5 5 5 6 8 8 9 10 9 8 7 7 6 5 5 4 3 3 2 1 2 2 2 2 3 3 4 5 6 5 5 5 6 6 6 6 8 9 9 10 11 10 10 12 13 14 14 12 12 12 12 13 13
19 18 18 17 16 16 16 17 17 19 21 22 22 21 20 19 18 17 16 15 13 12 11 9 7 7 7 8 8 9 8 7 7 6 6 7 8 9 9 9 8 7 7 6 6 5 4 3 2 2 1 1 2 3 3 3 3 3 4 5 5 5 4 3 4 5 5 5 6 8 7 8 8 7 8 9 10 12 13 12 12 12 12 13 13
21 20 20 19 17 17 18 19 19 19 20 21 21 21 20 19 17 16 15 13 12 11 10 9 8 8 9 10 11 10 10 10 8 7 8 8 8 9 9 9 8 7 6 5 5 4 3 2 2 2 2 2 3 3 4 4 4 4 5 5 5 4 3 2 3 4 3 3 4 6 5 6 6 7 8 8 8 10 11 11 12 11 11 12 13
22 22 22 21 20 19 20 21 21 20 21 21 21 20 20 19 17 16 15 13 13 12 10 10 9 9 10 12 11 10 11 10 9 8 8 8 8 9 8 8 7 6 5 4 4 3 3 3 3 3 3 3 3 4 5 5 5 5 5 5 5 4 4 3 3 3 2 2 4 5 5 6 7 8 8 7 8 9 9 10 10 9 9 10 11
22 23 24 23 22 22 22 22 22 22 21 20 19 19 19 18 17 16 16 15 13 11 10 11 10 10 11 11 10 12 12 10 10 10 9 8 8 8 7 7 5 5 5 4 4 4 4 4 4 5 4 4 4 5 5 5 5 5 6 5 5 6 5 4 4 4 3 4 5 6 7 7 7 8 8 8 9 9 8 8 8 8 9 9 10
23 24 24 24 24 24 24 23 23 22 21 20 17 17 18 18 17 17 18 16 13 12 12 12 12 12 13 11 10 10 11 12 12 10 9 9 9 8 6 6 5 5 5 4 4 5 5 6 6 5 5 5 5 5 5 4 4 4 5 5 6 6 6 6 6 5 5 6 7 7 7 7 7 8 8 8 8 8 7 7 8 9 9 9 10
25 26 26 26 26 27 26 24 23 22 22 21 19 17 18 18 18 17 16 15 13 13 14 14 14 15 15 14 12 10 9 10 12 11 10 10 9 8 7 6 6 6 5 5 5 5 5 7 7 6 5 6 6 5 4 4 4 3 4 5 6 7 7 6 7 7 7 7 7 7 7 7 7 8 8 9 9 9 8 9 9 9 9 10 10
26 27 27 28 29 28 26 25 23 22 22 22 20 19 19 17 18 17 15 15 14 14 14 15 15 16 16 14 13 12 9 9 11 11 10 10 10 9 8 8 7 7 5 5 6 6 5 6 6 6 6 6 6 5 4 4 4 3 4 5 6 7 6 5 6 7 7 7 6 6 7 7 7 8 8 9 9 9 10 10 10 9 10 10 10
27 28 28 30 31 28 26 25 23 22 22 22 21 21 20 18 18 18 16 16 17 17 16 16 15 16 17 14 12 12 9 10 12 12 11 11 11 11 10 9 8 7 6 6 6 6 5 5 6 6 5 5 5 4 4 3 3 3 4 5 6 5 5 5 5 5 5 6 6 7 7 7 8 8 8 8 9 9 9 9 9 9 10 10 10
27 28 29 31 31 28 26 25 24 23 22 22 21 21 20 19 19 19 17 17 17 17 18 18 16 16 16 12 9 9 11 13 13 12 12 12 12 12 11 10 9 8 8 7 6 6 6 6 5 5 5 5 4 4 3 2 3 3 4 5 4 4 4 4 4 4 5 5 6 7 7 7 7 7 7 8 8 9 9 9 9 10 10 10 11
27 27 29 32 31 28 26 25 24 24 24 23 21 21 21 21 21 19 18 18 16 16 17 18 18 18 17 13 9 7 10 15 15 13 13 14 14 13 12 11 10 10 9 8 7 7 7 6 5 4 4 3 3 3 2 2 3 3 4 4 4 3 3 3 3 4 4 5 6 6 6 6 7 7 7 8 9 9 9 10 10 11 11 11 12
28 27 30 31 29 27 26 24 23 23 23 22 22 22 22 22 22 20 19 18 17 16 16 18 20 20 19 15 12 9 7 11 15 16 15 16 16 15 14 13 12 11 10 8 8 7 7 6 5 4 3 2 2 1 1 3 4 4 4 4 3 3 3 3 3 3 4 5 6 6 6 6 7 8 8 9 9 10 10 11 11 11 12 12 13
28 28 30 30 28 27 26 24 23 22 21 21 22 24 24 22 22 21 19 18 17 17 16 18 19 20 19 17 14 12 8 8 13 16 16 18 19 17 15 14 14 13 11 9 8 7 6 6 5 4 3 1 1 0 1 4 5 4 3 3 4 4 3 3 3 3 4 5 5 6 6 7 7 8 8 9 9 10 11 11 12 12 12 13 14
29 29 30 30 28 28 26 25 24 22 22 21 22 25 25 23 22 21 19 18 17 16 16 16 17 17 18 18 16 14 11 9 14 17 15 16 19 19 18 16 16 15 13 12 10 7 6 6 6 4 3 2 1 2 3 6 6 5 3 3 3 4 3 3 3 3 4 5 5 6 6 7 7 7 8 8 9 10 10 11 11 12 12 13 14
29 29 30 30 28 28 26 25 24 23 23 22 23 26 25 23 22 21 19 18 17 17 17 15 14 15 17 17 17 17 13 12 16 20 17 15 15 17 19 19 18 17 15 13 11 8 7 6 6 5 3 2 2 3 5 6 6 5 4 3 3 3 3 3 4 4 4 5 5 5 5 6 6 7 7 8 8 9 10 10 11 11 12 12 12
28 28 29 28 27 26 24 23 23 24 24 23 23 25 24 22 22 20 18 18 18 18 17 15 14 15 17 17 16 17 14 11 14 19 20 17 14 15 18 19 18 16 16 15 11 9 7 7 7 6 4 3 3 5 6 6 6 5 4 3 3 3 3 4 4 4 4 4 4 4 4 5 6 6 7 7 8 8 9 9 10 10 10 11 11
26 25 27 27 26 24 23 23 24 24 24 23 24 24 25 24 23 21 19 18 18 18 18 17 16 15 17 17 16 16 14 10 10 15 18 17 13 13 16 19 18 16 15 14 12 10 8 8 8 7 5 4 5 6 7 6 5 4 4 3 2 3 4 4 5 5 4 4 3 3 3 4 5 5 5 6 6 7 8 8 8 9 9 9 10
26 26 26 26 28 26 24 24 23 23 24 24 24 25 26 25 23 21 19 18 19 19 19 18 16 15 15 16 16 17 16 12 10 12 16 17 14 13 15 18 18 17 16 14 12 11 10 10 10 8 5 5 6 7 7 6 5 4 4 2 2 4 5 5 5 5 4 3 2 2 2 2 3 3 4 5 5 6 7 7 8 8 9 10 10
27 26 24 25 28 27 25 24 22 23 24 24 24 26 25 24 23 22 20 18 18 19 19 17 16 16 16 16 17 17 16 14 11 11 15 17 16 15 16 18 19 17 16 15 14 12 11 11 10 9 7 5 6 7 7 6 5 5 4 2 3 4 5 5 5 5 4 3 2 1 1 1 2 3 4 5 6 7 7 8 8 9 9 10 10
25 23 21 24 26 26 25 23 22 22 24 23 24 25 24 23 23 23 21 18 18 19 19 17 17 18 18 17 17 17 17 16 13 11 14 15 15 16 16 18 20 19 17 15 14 13 11 10 11 10 8 7 6 7 8 7 5 5 5 3 3 4 5 5 5 5 4 3 2 2 2 2 2 3 4 5 6 6 7 7 8 8 9 9 9
21 19 21 24 24 24 23 22 21 22 23 22 23 24 23 22 22 22 20 19 19 19 19 18 18 18 18 18 18 18 18 17 14 13 13 14 15 16 16 16 17 19 18 17 16 15 13 12 12 11 9 8 8 8 8 7 6 5 5 4 3 4 5 5 5 5 4 4 3 3 2 3 3 4 4 5 5 6 6 6 7 7 8 8 9
18 19 22 24 23 21 20 21 22 22 22 22 22 23 23 23 22 20 19 19 20 20 19 19 19 18 18 18 19 19 19 18 16 14 14 14 14 16 17 15 15 17 17 16 15 14 14 14 12 11 11 10 10 10 9 8 6 6 6 5 4 4 5 6 6 5 5 4 4 4 4 3 3 3 4 4 4 4 4 5 5 6 7 8 8
18 19 23 24 22 21 20 21 21 22 23 23 23 24 24 23 22 20 19 20 20 20 20 20 19 19 19 20 20 20 20 19 16 14 14 15 14 15 16 14 14 15 14 13 11 9 11 13 11 11 11 11 11 11 10 9 7 7 6 5 4 4 6 7 7 7 6 6 5 5 5 4 3 3 3 3 2 2 2 3 4 5 6 7 7
18 21 24 23 22 22 21 20 20 22 24 23 23 23 24 24 23 21 20 21 21 21 21 21 20 20 21 21 21 21 20 19 17 16 15 16 15 14 15 14 14 14 13 12 11 7 6 7 9 10 10 11 11 11 11 10 8 8 7 7 6 6 7 8 8 8 8 7 7 7 6 5 4 4 3 3 2 1 2 2 3 4 5 5 6
19 22 24 23 22 20 19 19 20 22 23 23 22 23 23 24 24 22 22 22 22 21 21 21 21 21 21 21 20 20 20 20 19 18 16 16 16 15 15 14 14 14 13 13 13 10 5 2 8 11 10 10 11 11 11 11 9 8 9 9 9 9 8 9 9 10 10 9 9 8 7 6 6 5 5 4 4 4 4 4 5 5 5 6 6
19 22 22 23 21 19 18 19 20 21 22 22 22 22 23 24 24 23 22 22 22 21 21 22 22 22 21 20 20 20 20 20 20 19 18 17 17 17 16 15 15 15 15 14 13 12 8 5 8 12 12 11 11 11 12 11 10 9 9 10 10 10 9 9 10 11 11 11 11 10 9 8 7 7 7 7 7 7 7 7 7 8 8 8 8
20 22 22 22 21 19 19 19 19 19 21 22 22 22 23 23 23 23 23 22 23 22 21 22 22 22 21 20 20 21 21 21 20 19 18 17 18 18 17 16 16 16 16 15 15 14 12 9 9 11 13 12 11 11 11 11 10 9 9 9 10 9 9 10 10 11 12 12 12 12 11 9 9 10 9 9 9 9 9 9 9 10 10 10 10
21 22 22 21 21 21 21 20 19 19 20 21 22 22 22 21 22 23 24 23 23 23 22 22 22 21 21 20 20 21 22 21 21 20 19 18 18 18 18 17 17 17 17 17 17 16 15 13 11 11 12 13 12 11 11 10 10 10 10 10 10 10 10 11 11 12 12 13 14 14 13 12 11 12 11 11 11 11 11 11 12 12 13 13 13
21 22 22 22 22 22 22 22 20 19 19 20 20 20 20 20 21 23 23 23 23 22 22 22 22 22 21 21 21 21 21 20 20 20 20 19 18 18 18 18 18 19 19 19 19 18 17 16 14 13 13 14 13 12 12 12 12 12 11 11 11 12 12 13 13 12 13 14 14 15 15 14 14 14 14 14 14 14 14 14 14 15 15 16 17
22 24 24 23 23 22 22 22 21 20 20 20 19 18 19 19 20 21 21 21 21 21 20 21 22 22 22 22 22 21 21 20 21 21 21 20 20 20 20 19 19 19 20 20 20 20 19 18 16 16 15 15 15 14 14 14 15 14 13 12 13 13 13 14 14 13 13 14 15 15 15 15 15 16 17 17 17 17 17 17 18 18 19 19 19
23 25 25 24 23 23 22 22 23 22 20 19 18 17 18 19 19 19 20 20 21 21 20 20 21 22 22 23 22 21 21 21 21 22 22 22 22 22 22 21 20 20 21 21 21 21 21 19 18 18 17 16 15 16 16 17 17 16 15 14 14 13 13 13 14 14 13 14 14 14 14 14 15 16 18 19 20 20 20 21 21 22 22 22 22
23 25 26 25 24 23 23 23 24 22 21 20 18 17 18 18 18 19 20 21 21 21 20 20 20 21 22 22 21 20 20 20 20 20 21 22 23 23 24 22 21 20 21 21 22 23 22 21 20 19 18 17 17 17 18 18 19 19 18 18 16 14 13 12 12 13 13 13 14 14 14 15 15 17 18 19 20 21 22 23 24 25 25 25 26
23 25 25 24 24 23 22 23 23 22 22 21 19 19 20 20 19 19 20 21 20 20 20 20 20 20 20 19 18 18 18 18 18 19 20 21 22 24 25 24 22 22 21 21 22 23 23 22 22 22 20 19 19 19 19 19 20 21 21 19 17 15 14 13 12 13 14 15 15 16 16 17 17 18 19 20 21 22 23 24 26 27 27 28 29
24 25 25 24 24 23 22 22 22 22 22 21 21 21 22 21 21 20 20 20 19 19 19 19 19 18 18 17 16 16 17 17 17 19 20 21 21 23 24 23 23 23 22 22 22 23 24 24 25 24 23 21 21 20 19 19 19 20 19 19 18 16 16 16 15 15 16 17 18 18 18 19 20 20 21 22 22 23 24 25 26 27 28 29 31
26 27 26 24 24 23 23 22 22 23 24 22 21 22 22 22 21 21 21 20 20 19 19 18 18 18 17 17 16 15 16 16 16 18 18 18 18 19 19 20 21 22 21 21 21 22 23 25 27 26 25 22 21 20 19 18 18 18 18 18 18 17 17 18 17 16 17 18 19 20 20 20 21 22 22 22 22 22 23 24 25 26 27 28 29
26 27 27 26 25 25 23 22 22 23 24 23 22 22 22 21 21 21 21 20 20 19 19 18 17 17 17 16 15 16 16 15 15 16 15 15 16 17 17 18 19 19 19 18 18 20 22 24 25 25 24 22 20 20 19 18 18 18 19 19 18 18 18 19 18 18 18 18 19 21 21 21 22 22 23 23 22 22 23 24 25 26 27 27 28
26 28 28 27 27 27 25 23 22 23 24 23 22 22 22 21 21 21 20 20 19 19 19 18 18 18 18 17 16 16 15 15 15 15 15 15 15 16 16 16 17 17 17 17 17 20 22 22 22 23 22 21 20 20 20 20 19 19 19 20 20 20 20 20 20 20 20 19 21 23 24 24 25 25 24 24 23 24 25 26 27 28 28 29 29
28 29 30 28 27 28 27 24 23 24 24 23 23 22 21 20 19 20 20 19 19 19 19 19 19 19 19 18 17 16 15 14 14 14 14 14 14 14 14 14 15 16 16 16 16 18 20 20 20 21 21 21 20 20 20 21 20 20 20 21 21 21 22 22 22 23 23 23 23 23 24 24 24 24 24 23 23 25 26 27 27 28 29 29 30
30 30 30 28 26 27 27 25 24 24 25 24 23 22 21 19 19 20 21 20 20 20 20 20 20 20 20 18 17 16 14 13 12 12 12 12 12 12 12 13 14 14 15 15 15 17 19 19 19 20 20 20 20 20 20 21 21 21 21 22 22 23 23 23 22 21 20 20 20 20 21 21 21 23 24 24 25 26 27 27 28 29 29 29 30
31 30 30 29 28 28 28 26 25 27 27 26 24 23 21 20 20 21 21 21 20 20 20 20 20 20 20 19 17 16 15 13 11 10 10 10 10 10 9 10 12 12 13 13 12 16 18 18 18 19 19 19 19 19 19 19 19 20 20 21 21 21 20 19 18 17 16 17 19 22 23 22 22 25 26 26 27 28 28 28 28 28 28 28 28
30 30 30 30 30 29 28 27 28 28 28 27 25 23 22 22 22 22 22 22 21 19 19 19 19 18 19 19 18 17 15 13 12 11 9 9 8 8 7 7 8 10 11 9 9 11 13 14 15 15 15 15 15 15 15 15 16 17 18 18 17 15 16 16 17 19 19 20 22 24 25 24 23 25 26 26 27 28 27 27 27 27 27 26 25
29 30 30 30 31 30 28 27 28 29 28 27 26 25 24 24 23 24 23 23 21 20 18 18 17 17 17 18 18 18 17 15 13 12 10 9 8 7 7 7 7 9 9 8 8 9 8 9 10 11 12 13 12 13 13 13 14 14 15 15 13 13 15 16 16 18 18 19 21 22 23 23 22 24 26 25 26 27 27 26 26 26 26 25 26
28 29 30 31 32 31 29 28 28 28 28 27 26 26 26 26 25 24 24 23 21 20 19 19 18 17 16 17 18 18 17 16 14 12 11 10 9 8 7 7 7 8 8 8 9 10 10 10 9 9 10 9 9 10 10 9 11 12 11 11 12 12 14 14 14 16 17 18 19 20 21 22 21 22 25 26 26 26 26 24 23 23 24 25 26
22 24 27 29 31 30 29 29 29 28 28 27 27 27 28 28 27 25 24 23 22 21 20 20 19 17 16 16 18 18 17 15 14 13 12 11 10 9 8 7 7 8 8 8 9 10 11 10 10 11 10 8 8 10 9 9 12 13 12 12 13 13 14 14 15 16 16 17 19 20 22 23 23 22 24 25 26 25 24 23 23 23 24 24 24
Wind_Direction
218 227 233 233 222 209 199 191 188 186 182 181 188 195 199 200 201 205 210 211 210 208 208 207 208 49 40 36 39 50 52 44 37 39 45 50 65 86 99 103 106 108 107 106 103 99 96 95 93 91 90 89 88 85 83 81 77 73 69 65 61 59 58 57 56 55 56 57 58 57 57 57 55 55 55 56 57 57 57 56 56 58 59 59 58
221 227 224 219 214 206 194 188 188 186 184 185 186 194 199 201 202 205 209 210 211 215 217 218 220 243 344 18 20 33 34 31 29 35 44 56 79 105 115 115 117 116 113 109 104 100 97 94 91 88 86 85 84 82 79 76 73 71 67 63 60 57 56 56 55 57 60 63 64 64 62 59 57 56 56 57 57 57 57 57 56 56 60 61 60
221 221 210 207 209 202 188 184 187 186 185 187 187 192 197 200 203 204 206 210 216 218 220 229 235 249 276 319 321 350 4 12 25 38 46 57 95 126 131 125 124 121 115 109 101 95 91 87 85 83 81 78 75 73 71 69 66 64 62 61 61 60 60 60 57 56 59 63 64 65 64 61 58 55 54 55 55 56 56 56 56 57 59 61 61
216 210 200 203 209 203 191 187 189 187 185 187 189 192 195 197 200 202 206 213 218 219 225 239 244 248 259 276 277 303 335 356 25 46 51 55 114 146 145 135 133 128 120 110 99 91 84 80 79 77 72 66 65 61 59 59 57 54 53 55 58 62 64 66 64 60 57 58 58 59 59 57 54 51 50 50 51 54 54 54 55 57 59 60 60
213 204 201 205 207 204 197 194 194 191 187 187 190 194 196 198 201 205 209 213 216 222 231 241 242 238 243 254 252 266 299 342 37 65 69 75 128 148 148 145 144 136 123 109 104 99 92 86 80 74 58 53 56 50 45 47 47 44 43 46 52 58 63 66 67 65 63 59 56 56 52 48 48 45 43 43 47 53 56 56 55 56 58 59 59
211 207 208 206 204 202 200 197 198 195 190 189 192 195 199 202 205 208 209 211 216 223 229 235 238 234 235 239 236 232 222 174 103 98 93 102 130 140 139 145 145 135 124 114 109 109 106 100 90 81 61 56 59 46 37 38 38 35 35 39 45 52 58 60 61 63 63 58 55 54 46 40 43 45 44 46 49 54 57 58 57 57 56 56 55
211 209 211 205 202 199 196 194 195 194 191 193 195 198 202 203 207 210 210 211 214 219 222 225 230 233 235 232 227 219 194 164 140 127 119 119 129 134 135 141 140 133 131 127 120 115 112 107 99 93 76 62 59 44 35 35 35 31 31 36 40 44 50 52 54 58 58 54 50 45 40 37 38 40 43 47 52 54 56 60 60 58 57 55 53
212 210 208 203 200 195 191 191 189 189 191 195 199 202 205 206 209 211 212 211 212 216 218 219 221 222 229 227 218 205 183 160 147 141 137 135 134 137 138 141 141 136 133 131 127 120 112 106 101 97 80 59 52 53 49 44 45 41 35 35 36 34 37 44 47 50 52 52 47 40 44 50 41 34 36 41 47 50 54 61 62 58 57 57 55
215 211 206 202 199 192 190 191 187 185 189 195 200 204 207 209 211 211 211 211 215 219 216 217 216 212 218 219 211 199 175 152 147 149 147 144 141 142 142 142 142 140 137 131 126 118 107 95 85 88 90 73 67 75 77 69 66 58 43 34 31 28 28 42 45 40 42 47 46 40 47 56 43 38 44 44 46 48 52 58 59 58 58 57 57
216 213 207 203 201 195 192 193 190 186 188 192 196 201 205 208 210 211 209 209 214 216 216 218 211 207 209 209 208 194 162 147 149 153 151 148 145 144 143 145 146 142 136 129 121 110 97 82 71 85 101 99 88 85 86 85 79 63 49 41 38 33 26 52 55 39 48 50 45 46 53 61 56 56 59 55 56 55 53 57 60 61 60 58 59
216 214 210 207 205 201 197 196 195 192 192 192 191 194 199 205 208 211 211 210 214 218 222 218 207 205 205 207 205 179 155 151 155 158 156 150 149 148 146 148 149 142 136 128 115 98 89 89 90 98 107 109 105 101 98 94 84 67 57 54 59 55 47 80 97 65 69 67 53 60 71 77 74 67 61 60 69 68 63 68 71 65 59 59 60
216 215 213 211 210 207 202 200 200 199 198 198 196 194 196 203 208 213 214 207 208 218 222 215 205 199 197 207 201 169 159 162 162 165 164 156 155 155 154 155 155 148 142 130 112 99 96 102 109 111 111 108 104 105 104 92 81 76 68 62 67 68 64 88 107 90 82 78 72 80 85 81 73 66 64 67 77 80 80 80 75 62 59 64 61
218 217 215 214 212 208 205 204 205 205 204 206 206 202 198 203 209 218 222 210 199 205 211 208 202 196 191 197 190 170 173 175 169 171 169 164 164 162 164 172 172 162 152 137 117 105 107 115 117 115 112 110 106 103 97 76 67 79 77 69 67 69 70 85 95 88 87 89 87 86 81 75 67 62 63 65 71 75 74 69 62 59 63 66 62
222 220 217 215 213 209 207 206 208 210 211 211 212 211 204 204 211 221 224 214 205 206 204 201 202 202 196 188 181 182 193 185 174 177 178 174 173 171 179 188 186 176 163 146 128 116 119 122 117 115 115 114 111 103 86 57 51 71 91 90 79 74 75 82 86 86 92 95 91 84 76 71 67 62 61 61 64 66 67 65 61 62 64 63 61
225 223 221 218 215 212 210 210 212 216 218 215 213 215 209 206 215 221 215 204 206 210 205 204 206 204 196 188 186 188 194 192 184 185 187 184 181 182 191 192 184 180 167 151 141 131 132 132 120 116 117 115 110 101 84 63 55 67 98 111 100 90 87 85 87 92 98 98 92 84 77 73 68 63 62 61 63 64 65 65 62 62 61 60 60
229 226 225 222 218 214 214 215 217 220 223 219 216 215 209 207 216 218 209 202 204 205 204 207 209 204 195 187 187 189 195 200 193 190 191 189 189 191 195 189 181 181 169 157 152 139 141 144 129 119 116 115 108 100 90 77 73 79 100 119 119 113 107 98 97 100 101 98 90 83 76 72 69 65 64 64 63 64 63 63 62 60 58 57 55
232 229 228 224 221 217 217 219 219 219 221 219 217 216 211 209 215 214 208 209 209 203 201 203 206 209 208 199 190 195 205 204 196 194 193 189 189 195 197 186 181 185 174 166 159 144 147 149 135 130 127 121 109 98 92 85 94 105 111 121 125 123 110 99 99 100 99 94 87 82 77 72 70 68 67 67 65 64 63 62 61 58 56 55 55
233 230 227 223 221 220 220 219 217 217 217 215 215 215 211 210 212 212 209 210 212 209 205 203 201 206 218 220 213 214 214 205 197 193 191 189 189 194 196 185 185 189 177 172 170 153 153 155 148 146 141 133 115 90 86 103 113 121 124 125 122 117 107 102 104 104 101 95 88 83 78 73 68 65 64 63 62 62 62 62 61 60 61 60 61
233 228 225 223 222 222 223 219 215 216 216 217 219 216 211 210 210 211 211 209 211 213 212 208 202 202 211 218 220 225 227 214 203 192 187 189 191 195 195 188 189 191 179 175 178 167 165 171 166 158 156 151 117 65 78 130 136 134 135 135 127 120 111 107 107 107 104 99 93 85 78 72 65 63 62 61 62 63 64 64 65 65 65 65 64
231 226 224 224 225 224 225 221 214 214 215 218 225 220 210 209 210 210 211 210 210 212 213 214 209 203 205 208 215 221 230 233 216 204 194 188 190 195 196 192 191 188 179 173 176 170 166 173 175 167 170 192 228 286 142 143 148 146 148 150 138 127 115 110 110 112 111 102 95 86 78 73 70 68 67 67 68 68 68 67 67 67 66 64 61
229 226 223 223 224 225 226 223 215 212 215 219 226 223 211 208 210 209 209 207 207 210 213 218 217 211 207 205 207 211 222 232 216 212 209 195 192 196 195 193 192 187 177 170 169 165 160 163 171 175 182 205 232 217 172 156 155 152 157 160 148 137 129 131 134 129 118 105 94 87 82 78 76 73 72 72 72 70 69 68 66 65 63 60 57
232 229 224 221 224 227 225 222 219 217 219 222 227 223 214 211 212 210 210 206 205 208 211 217 220 218 216 211 206 203 208 215 206 207 214 210 207 203 196 195 194 184 175 171 166 161 161 162 166 176 192 205 203 183 169 164 162 160 160 165 159 149 152 157 149 137 122 105 96 91 87 85 80 77 74 72 69 67 66 65 63 61 59 56 53
230 230 228 222 222 225 219 218 224 224 222 224 227 225 217 214 213 210 212 210 207 207 209 215 218 219 219 217 212 205 206 216 210 207 212 214 216 210 199 198 199 188 176 174 170 165 169 168 166 173 182 179 174 168 165 167 169 166 163 165 171 172 176 172 153 138 122 108 102 99 92 85 79 74 71 68 66 65 63 60 59 57 55 53 49
234 233 235 227 218 217 215 217 224 224 223 223 224 227 223 217 211 208 210 211 209 209 209 211 213 215 219 219 214 209 212 229 231 220 219 220 223 216 202 199 203 196 185 184 181 176 181 178 173 177 174 158 156 162 165 170 176 171 163 167 184 194 193 178 156 141 129 119 112 102 91 81 77 75 73 73 71 68 64 61 60 58 56 55 52
246 243 243 232 217 211 213 219 225 225 225 223 222 227 226 218 210 208 210 210 209 210 210 210 210 211 216 218 215 210 212 226 238 234 229 226 226 222 208 201 205 201 191 194 195 190 190 189 185 182 172 152 152 163 166 171 181 176 164 172 203 211 203 183 163 150 144 139 129 111 97 85 84 85 82 79 76 71 68 66 65 65 62 59 55
256 250 244 229 213 209 212 220 227 228 228 224 220 224 225 220 213 209 209 210 210 210 211 212 211 210 212 217 218 213 213 221 231 234 232 228 225 222 211 203 208 208 199 197 203 204 200 198 196 192 179 160 155 164 171 176 185 181 169 179 219 225 213 191 173 163 161 161 161 167 146 118 106 97 89 82 79 75 73 71 68 65 61 57 52
262 253 233 217 209 208 215 223 228 230 229 223 219 221 222 221 218 213 208 208 211 211 212 213 212 211 210 213 218 218 215 219 226 231 232 231 227 223 216 208 206 209 208 206 210 213 209 205 206 200 186 174 167 170 177 184 190 187 177 183 219 232 222 203 188 180 180 183 192 210 191 158 135 113 100 89 83 78 72 67 61 56 51 48 46
260 247 223 212 212 214 219 224 226 229 230 224 220 221 222 222 220 216 211 209 212 213 213 213 214 214 212 212 216 218 218 220 227 231 229 229 230 226 224 223 217 211 210 213 219 219 213 210 211 207 196 185 181 180 184 190 196 195 187 182 207 229 225 215 208 201 199 203 217 227 205 167 144 126 111 98 89 79 68 56 47 43 40 38 39
253 237 218 214 218 221 224 225 225 227 227 222 219 221 222 221 219 216 213 212 214 215 215 215 215 216 215 214 216 217 218 221 226 228 224 224 228 226 227 236 236 227 218 219 228 227 220 216 211 205 201 193 189 188 190 196 199 200 196 187 192 215 224 225 224 222 220 225 237 241 219 184 161 142 124 110 96 78 58 42 32 28 27 27 28
247 225 212 212 216 221 224 226 228 228 225 220 217 218 219 219 218 216 214 215 216 216 217 218 217 217 215 215 217 218 218 221 225 224 221 223 224 223 229 237 239 238 235 237 245 241 229 224 213 201 201 200 198 195 194 199 203 205 205 198 192 205 223 231 233 232 232 237 247 249 233 208 191 173 151 133 114 82 38 17 8 7 10 13 15
238 214 206 209 216 220 224 229 232 229 224 218 215 216 216 218 219 217 215 216 217 218 218 219 217 217 216 213 215 218 218 221 225 224 222 224 223 222 228 232 231 235 240 245 251 250 241 228 208 198 198 199 203 202 200 203 205 207 211 211 207 207 218 231 236 237 237 241 250 254 245 226 214 206 193 189 197 238 297 314 319 328 340 349 355
228 209 205 210 214 219 227 233 233 228 224 219 217 217 216 219 221 219 217 218 219 219 218 219 217 215 215 212 213 218 220 221 224 225 224 225 225 225 226 228 228 231 235 238 242 244 253 220 189 192 195 198 204 206 205 207 210 214 218 221 221 219 220 228 236 239 239 241 246 250 248 238 228 222 219 221 231 245 260 272 281 290 301 313 322
219 207 207 211 213 217 227 231 228 226 225 222 220 220 220 220 220 219 219 219 220 218 216 217 216 214 214 213 213 217 220 222 224 224 224 227 228 228 227 225 225 229 233 233 235 236 239 220 186 189 194 199 203 202 203 208 214 220 222 224 227 228 227 229 236 240 241 242 244 246 247 243 237 231 229 233 240 249 257 263 269 275 283 290 297
215 208 208 209 211 218 224 226 224 223 223 221 220 221 222 223 221 219 218 218 219 218 216 214 213 213 215 215 214 217 217 218 220 222 223 226 229 228 226 225 225 228 232 233 233 233 232 228 211 200 201 204 205 203 204 208 216 224 226 226 230 233 233 235 238 240 241 242 243 243 244 244 242 239 237 239 244 250 256 260 264 268 274 279 285
217 211 209 209 212 219 223 223 223 223 222 219 218 220 222 224 221 218 218 220 221 220 218 216 214 214 217 217 217 220 219 215 215 218 221 224 226 227 227 229 229 231 232 233 233 231 228 229 229 220 215 214 213 208 206 210 217 225 228 228 231 233 235 238 241 240 241 242 242 242 243 244 245 244 242 242 245 248 254 259 262 265 269 273 277
225 215 211 212 215 220 225 225 224 225 223 218 217 220 222 224 221 218 219 222 224 223 221 219 218 217 217 218 219 222 224 220 215 216 219 221 224 226 228 230 233 234 235 234 234 232 230 231 233 231 229 229 228 222 216 215 219 225 229 230 231 233 234 238 241 241 241 242 242 242 242 244 246 247 246 245 245 246 250 256 260 264 267 271 275
226 218 215 216 218 221 224 225 222 223 223 218 217 220 221 222 222 220 220 220 221 223 221 219 221 222 221 220 220 221 223 223 220 219 222 224 225 227 229 230 232 234 236 236 235 232 229 230 234 237 238 238 238 234 228 225 226 230 233 234 235 237 238 239 238 238 238 240 240 240 242 243 246 248 250 250 250 250 253 257 261 264 268 271 275
225 222 220 220 221 220 222 223 221 221 222 220 219 219 220 219 220 221 221 219 219 220 219 219 221 223 223 222 220 220 222 223 223 224 225 226 227 228 230 230 231 232 236 238 235 231 228 228 231 236 239 241 245 246 240 234 232 234 237 240 243 244 245 243 237 234 235 236 237 239 243 245 249 252 254 255 255 255 256 260 263 267 270 274 278
230 228 225 222 220 219 221 222 220 218 219 221 221 221 221 220 218 221 221 220 222 220 218 219 221 223 224 222 218 219 221 223 226 227 228 229 228 229 231 232 233 234 235 237 235 231 229 227 226 229 235 242 250 253 249 241 237 237 238 241 243 244 246 246 241 237 237 239 243 247 251 255 258 261 263 263 263 262 262 265 268 271 274 277 281
231 229 224 220 217 218 220 221 221 219 217 218 221 222 222 221 219 220 219 218 221 221 217 218 219 220 222 221 218 218 222 225 227 229 229 230 230 230 231 232 233 233 234 237 237 234 231 229 228 230 235 243 252 253 246 240 239 238 238 239 242 243 246 249 249 248 248 251 255 259 262 265 267 270 272 273 273 273 273 273 274 276 278 280 282
229 225 218 213 214 218 220 218 220 223 221 219 221 223 222 220 219 219 219 219 219 217 215 215 216 216 217 218 217 217 222 225 225 227 230 231 232 233 233 233 234 236 235 236 238 237 234 232 231 233 237 245 251 248 239 236 239 242 242 241 241 242 246 252 254 257 260 262 265 267 268 272 274 276 278 277 276 277 276 275 275 276 277 278 280
224 221 214 209 212 217 220 216 215 220 222 220 220 222 221 220 219 218 218 219 217 216 215 215 215 215 213 213 213 215 220 223 225 230 235 237 238 239 238 236 237 239 239 238 239 239 237 234 232 234 239 245 246 240 235 236 240 246 247 245 244 245 249 255 258 260 264 268 272 273 274 277 280 279 279 278 277 277 277 276 276 277 277 277 279
220 217 211 209 212 215 215 214 214 216 218 218 218 218 217 216 217 217 217 217 217 216 216 216 215 214 211 210 210 212 215 217 222 229 234 235 236 238 239 237 234 234 236 237 240 240 237 232 230 231 236 243 242 237 237 239 241 246 249 248 248 249 251 257 261 265 267 270 273 274 272 274 276 273 271 271 271 272 274 276 277 277 277 278 279
217 214 211 211 213 213 214 215 216 216 216 216 215 214 213 212 213 215 216 217 217 218 218 216 215 214 211 210 210 209 209 212 220 228 231 230 230 232 236 239 237 235 236 238 241 241 236 230 227 228 233 238 239 238 240 241 242 248 251 251 252 252 254 258 263 269 272 272 272 271 266 266 269 270 268 268 270 273 275 277 278 278 279 280 281
218 216 213 212 211 212 216 217 216 215 214 212 211 209 209 210 211 214 215 215 217 218 217 214 212 211 209 209 208 206 208 216 225 230 230 229 230 232 238 243 241 239 239 239 240 240 234 226 225 230 236 238 238 239 241 243 246 250 251 252 253 255 258 260 262 267 269 270 271 270 265 264 269 273 273 273 276 278 279 279 280 280 282 282 283
218 219 216 214 213 214 216 219 218 216 211 208 207 206 207 211 213 214 213 213 215 216 214 211 209 208 207 208 207 207 211 220 227 229 228 227 228 231 237 242 244 244 242 239 237 236 232 228 227 230 235 239 239 241 243 244 247 249 250 251 253 255 258 260 261 263 265 269 273 275 273 271 273 277 278 279 281 281 281 281 282 283 284 285 285
218 219 217 216 218 218 218 218 218 214 208 204 206 207 210 214 217 217 215 213 212 212 211 210 209 208 209 209 208 208 213 216 218 222 222 218 218 224 231 240 246 247 243 238 233 231 232 233 229 226 229 235 237 240 242 244 246 249 249 251 252 254 255 257 261 267 273 278 279 280 281 281 281 282 283 284 284 283 284 286 286 287 287 287 287
221 220 219 219 220 220 218 218 217 212 205 203 206 209 211 215 218 218 216 212 209 209 209 209 209 209 210 210 208 208 210 211 211 214 216 213 212 216 221 228 234 236 235 233 229 225 223 224 224 222 224 229 231 233 235 236 239 241 243 244 245 250 257 262 267 273 278 280 280 282 285 286 285 285 286 287 287 287 289 290 291 290 290 289 287
223 225 224 223 222 220 218 216 214 209 203 203 208 210 211 213 214 215 214 210 208 208 208 209 209 209 209 210 211 210 208 209 210 212 214 216 217 218 219 217 221 228 232 229 224 220 210 204 205 206 209 211 214 217 218 221 228 233 238 245 250 259 267 271 273 275 277 279 279 282 284 286 286 286 287 289 289 290 292 293 293 293 292 291 290
217 222 225 224 221 218 215 214 213 210 205 207 212 214 211 210 211 213 212 211 210 210 209 208 208 208 207 207 207 205 204 207 211 213 217 223 226 226 224 219 221 227 230 224 220 223 222 216 215 222 222 215 220 231 233 239 251 257 262 268 273 276 276 276 278 280 282 283 283 283 284 286 289 290 292 294 295 295 297 297 297 297 296 296 296
203 208 214 218 218 215 212 211 211 211 212 213 217 218 214 210 211 214 214 213 213 211 210 209 206 202 199 196 195 196 200 206 210 214 220 225 226 223 216 212 216 218 219 218 217 222 229 230 233 243 248 249 253 260 266 268 271 280 287 286 286 289 288 288 287 288 290 289 288 290 291 292 295 298 300 303 304 304 304 303 303 304 303 302 302